Regional Weather Roundup
Issued by NWS Portland, ME

Home | Current Version | Previous Version | Text Only | Print | Product List | Glossary On
Versions: 1 2 3 4 5 6 7 8 9 10 11 12 13 14 15 16 17 18 19 20 21 22 23 24 25 26 27 28 29 30 31 32 33 34 35 36 37 38 39 40 41 42 43 44 45 46 47 48 49 50
257
ASUS41 KGYX 270010
RWRGYX
WEATHER ROUNDUP FOR MAINE AND NEW HAMPSHIRE
NATIONAL WEATHER SERVICE GRAY ME
800 PM EDT THU MAY 26 2016

MEZ002-005-006-010-012-015-018-020-021-024-026-027-029-270100-
MAINE

CITY           SKY/WX    TMP DP  RH WIND       PRES   REMARKS
PORTLAND       CLOUDY    62  51  67 S8        30.11R
6HR MIN TEMP:  62; 6HR MAX TEMP:  77;

SANFORD        CLOUDY    64  48  55 SE3       30.12R
BAR HARBOR     CLOUDY    62  52  69 SE3       30.14R
WISCASSET      CLOUDY    63  51  65 CALM      30.13R
6HR MIN TEMP:  63; 6HR MAX TEMP:  81;

ROCKLAND       CLOUDY    60  51  72 S5        30.12R
FRYEBURG       CLOUDY    72  53  51 S3        30.08R
6HR MIN TEMP:  72; 6HR MAX TEMP:  84;

LEWISTONAUBURN CLOUDY    64  48  55 SE6       30.10S
AUGUSTA        CLOUDY    67  51  56 S8        30.11R
6HR MIN TEMP:  67; 6HR MAX TEMP:  80;

WATERVILLE     CLOUDY    68  51  54 S3        30.08R
BANGOR         CLOUDY    73  51  46 S9        30.11R
6HR MIN TEMP:  72; 6HR MAX TEMP:  82;

GREENVILLE       N/A     65  43  44 E8        30.11R
6HR MIN TEMP:  65; 6HR MAX TEMP:  73;

MILLINOCKET    CLOUDY    65  49  56 E14       30.15R
6HR MIN TEMP:  65; 6HR MAX TEMP:  75;

HOULTON        PTCLDY    58  50  75 E5        30.16S
6HR MIN TEMP:  58; 6HR MAX TEMP:  63;

PRESQUE ISLE   MOCLDY    59  50  72 CALM      30.18R
6HR MIN TEMP:  58; 6HR MAX TEMP:  61;

FRENCHVILLE    CLOUDY    58  45  62 CALM      30.17R
6HR MIN TEMP:  57; 6HR MAX TEMP:  62;

CARIBOU        CLOUDY    60  50  69 CALM      30.16S
6HR MIN TEMP:  58; 6HR MAX TEMP:  63;

$$

NHZ002-005-008-009-011-012-014-270100-
NEW HAMPSHIRE

CITY           SKY/WX    TMP DP  RH WIND       PRES   REMARKS
PORTSMOUTH     MOCLDY    62  50  64 SE12      30.09R
ROCHESTER      MOCLDY    66  49  54 S6        30.09R
6HR MIN TEMP:  66; 6HR MAX TEMP:  86;

NASHUA         PTCLDY    73  57  57 E12       30.05S
MANCHESTER     MOCLDY    71  56  58 NE6       30.05R
6HR MIN TEMP:  71; 6HR MAX TEMP:  89;

CONCORD        CLOUDY    67  58  72 E9        30.07F
6HR MIN TEMP:  67; 6HR MAX TEMP:  88; 6HR PCP:  0.01;

LACONIA        CLEAR     73  56  54 VRB3      30.07R
BERLIN         MOCLDY    73  47  39 CALM      30.08S
6HR MIN TEMP:  73; 6HR MAX TEMP:  83;

WHITEFIELD     PTCLDY    71  50  47 CALM      30.07S
6HR MIN TEMP:  71; 6HR MAX TEMP:  82;

JAFFREY        CLOUDY    77  58  51 CALM      30.07R
6HR MIN TEMP:  77; 6HR MAX TEMP:  86;

KEENE          CLOUDY    75  61  60 CALM      30.03S
LEBANON        PTCLDY    74  61  63 CALM      30.02S
6HR MIN TEMP:  72; 6HR MAX TEMP:  87;

MT WASHINGTON  PTCLDY    52  39  62 SW17        N/A
6HR MIN TEMP:  52; 6HR MAX TEMP:  57;

$$

VTZ005-007-008-270100-
VERMONT

CITY           SKY/WX    TMP DP  RH WIND       PRES   REMARKS
ST JOHNSBURY     N/A     75  52  44 MISG      30.03F
MONTPELIER     MOCLDY    70  57  63 S5        30.09F
BURLINGTON     MOCLDY    76  48  37 CALM      30.02F
$$

MAZ007-012-024-CTZ003-RIZ002-NYZ038-NYZ072-270100-
SOUTHERN NEW ENGLAND AND NY

CITY           SKY/WX    TMP DP  RH WIND       PRES   REMARKS
BOSTON         CLOUDY    61  55  81 NE7       30.05S
WORCESTER      PTCLDY    76  55  48 SW5       30.07S
NANTUCKET      PTCLDY    58  53  84 SE7       30.10S
PROVIDENCE     MOCLDY    71  57  61 S8        30.05R
HARTFORD       PTCLDY    82  56  40 S7        30.01S
ALBANY         CLOUDY    82  55  39 S7        30.00S
NEW YORK CITY  MOCLDY    81  55  40 S12       30.03R
$$

ANZ081-ANZ082-ANZ150-NHZ014-MEZ023>029-270100-
COASTAL MARINE OBSERVATIONS

STATION/POSITION TIME  TEMP    WIND        PRES    WAVE
                       AIR SEA DIR/SP/G            HT/PER
                 (UTC) (F)     (DEG/KT/KT) (MB)    (FT/S)
MOUNT DESERT ROC 0000   56     150/  5/  5 1020.8R
MATINICUS ROCK   0000   54     140/ 11/ 12 1019.7R
ISLE OF SHOALS   0000   58     120/ 14/ 15 1018.7R
JEFFREYS LEDGE   2308      53                N/A     2/ 8
CASHES LEDGE BUO 2350   54 52  180/ 10/ 10 1019.8R   2/ 8
GEORGES BANK BUO 2350   54 53              1020.2R   3/ 8
$$

.............KEY..............
   WCI - WIND CHILL
   TC  - TEMPERATURE IN CELSIUS
   VSB - VISIBILITY IN MILES
   HX  - HEAT INDEX
   FAIR- INDICATES FEW OR NO CLOUDS BELOW 12,000 FT, WITH NO
         SIGNIFICANT WEATHER AND/OR OBSTRUCTIONS TO VISIBILITY.






USA.gov is the U.S. government's official web portal to all federal, state and local government web resources and services.